Weather History for Crystal River, FL

Change the Weather History Date:

Thursday, March 28, 2013

  Actual Average (KBKV) Record (KBKV)
Temperature  
Mean Temperature 50 °F -  
Max Temperature 68 °F 76 °F 88 °F (2009)
Min Temperature 32 °F 51 °F 34 °F (2013)
Degree Days  
Heating Degree Days 15    
Moisture  
Dew Point 33 °F    
Average Humidity 63    
Maximum Humidity 100    
Minimum Humidity 17    
Precipitation  
Precipitation 0.00 in - - ()
Sea Level Pressure  
Sea Level Pressure 30.28 in    
Wind  
Wind Speed 2 mph (WNW)    
Max Wind Speed 15 mph    
Max Gust Speed 20 mph    
Visibility 10 miles    
Events      
Averages and records for this station are not official NWS values.
T = Trace of Precipitation, MM = Missing Value Source: NWS Daily Summary

Daily Weather History Graph

Daily Weather History Graph

Search for Another Location

Airport:

Trip Planner

Search our weather history database for the weather conditions in past years. The results will help you decide how hot, cold, wet, or windy it might be!

Date:

Astronomy

Mar. 28, 2013 Rise Set
Actual Time 7:24 AM EDT 7:46 PM EDT
Civil Twilight 7:00 AM EDT 8:10 PM EDT
Nautical Twilight 6:33 AM EDT 8:37 PM EDT
Astronomical Twilight 6:05 AM EDT 9:05 PM EDT
Moon 9:24 PM EDT (3/28) 8:00 AM EDT (3/28)
Length of Visible Light 13h 09m
Length of Day
12h 21m
Full, 98% of the Moon is Illuminated
Mar 28
Full
Apr 3
Last Quarter
Apr 10
New
Apr 18
First Quarter
Apr 25
Full

Hourly Weather History & Observations

Time (EDT) Temp. Dew Point Humidity Pressure Visibility Wind Dir Wind Speed Gust Speed Precip Events Conditions
12:15 AM 35.6 °F 33.8 °F 93% 30.29 in 10.0 mi Calm Calm - N/A   Clear
12:35 AM 35.6 °F 33.8 °F 93% 30.29 in 10.0 mi Calm Calm - N/A   Clear
12:55 AM 35.6 °F 32.0 °F 87% 30.29 in 10.0 mi Calm Calm - N/A   Clear
1:15 AM 33.8 °F 32.0 °F 93% 30.30 in 10.0 mi Calm Calm - N/A   Clear
1:35 AM 33.8 °F 32.0 °F 93% 30.30 in 10.0 mi Calm Calm - N/A   Clear
1:55 AM 33.8 °F 32.0 °F 93% 30.29 in 10.0 mi Calm Calm - N/A   Clear
2:15 AM 33.8 °F 32.0 °F 93% 30.29 in 10.0 mi Calm Calm - N/A   Clear
2:35 AM 33.8 °F 32.0 °F 93% 30.28 in 10.0 mi Calm Calm - N/A   Clear
2:55 AM 33.8 °F 32.0 °F 93% 30.28 in 10.0 mi Calm Calm - N/A   Clear
3:15 AM 32.0 °F 30.2 °F 93% 30.28 in 10.0 mi Calm Calm - N/A   Clear
3:35 AM 32.0 °F 30.2 °F 93% 30.28 in 10.0 mi Calm Calm - N/A   Clear
3:55 AM 32.0 °F 30.2 °F 93% 30.27 in 10.0 mi Calm Calm - N/A   Clear
4:15 AM 32.0 °F 30.2 °F 93% 30.27 in 10.0 mi Calm Calm - N/A   Clear
4:35 AM 32.0 °F 30.2 °F 93% 30.27 in 10.0 mi Calm Calm - N/A   Clear
4:55 AM 32.0 °F 30.2 °F 93% 30.27 in 10.0 mi Calm Calm - N/A   Clear
5:15 AM 32.0 °F 30.2 °F 93% 30.27 in 10.0 mi Calm Calm - N/A   Clear
5:35 AM 32.0 °F 30.2 °F 93% 30.28 in 10.0 mi Calm Calm - N/A   Clear
5:55 AM 32.0 °F 30.2 °F 93% 30.28 in 7.0 mi Calm Calm - N/A   Clear
6:15 AM 32.0 °F 30.2 °F 93% 30.28 in 10.0 mi Calm Calm - N/A   Clear
6:35 AM 32.0 °F 30.2 °F 93% 30.29 in 10.0 mi Calm Calm - N/A   Clear
6:55 AM 32.0 °F 30.2 °F 93% 30.29 in 10.0 mi Calm Calm - N/A   Clear
7:15 AM 32.0 °F 30.2 °F 93% 30.29 in 10.0 mi Calm Calm - N/A   Clear
7:35 AM 32.0 °F 28.4 °F 87% 30.29 in 10.0 mi Calm Calm - N/A   Clear
7:55 AM 32.0 °F 30.2 °F 93% 30.29 in 10.0 mi Calm Calm - N/A   Clear
8:15 AM 32.0 °F 32.0 °F 100% 30.30 in 10.0 mi Calm Calm - N/A   Clear
8:35 AM 35.6 °F 33.8 °F 93% 30.30 in 10.0 mi Calm Calm - N/A   Clear
8:55 AM 42.8 °F 35.6 °F 76% 30.31 in 10.0 mi Calm Calm - N/A   Clear
9:15 AM 46.4 °F 33.8 °F 62% 30.31 in 10.0 mi Calm Calm - N/A   Clear
9:35 AM 51.8 °F 32.0 °F 47% 30.32 in 10.0 mi North 4.6 mph - N/A   Clear
9:55 AM 53.6 °F 32.0 °F 44% 30.32 in 10.0 mi North 5.8 mph - N/A   Clear
10:15 AM 57.2 °F 30.2 °F 36% 30.33 in 10.0 mi North 4.6 mph - N/A   Clear
10:35 AM 59.0 °F 26.6 °F 29% 30.33 in 10.0 mi NW 4.6 mph - N/A   Clear
10:55 AM 60.8 °F 24.8 °F 25% 30.33 in 10.0 mi North 5.8 mph - N/A   Clear
11:15 AM 60.8 °F 23.0 °F 23% 30.32 in 10.0 mi NNW 5.8 mph - N/A   Clear
11:35 AM 62.6 °F 23.0 °F 22% 30.32 in 10.0 mi NNW 4.6 mph - N/A   Clear
11:55 AM 62.6 °F 23.0 °F 22% 30.32 in 10.0 mi NNW 8.1 mph - N/A   Clear
12:15 PM 64.4 °F 23.0 °F 21% 30.31 in 10.0 mi NNW 8.1 mph - N/A   Clear
12:35 PM 66.2 °F 23.0 °F 19% 30.30 in 10.0 mi NE 6.9 mph - N/A   Clear
12:55 PM 66.2 °F 21.2 °F 18% 30.30 in 10.0 mi Calm Calm - N/A   Clear
1:15 PM 68.0 °F 21.2 °F 17% 30.30 in 10.0 mi North 5.8 mph - N/A   Clear
1:35 PM 68.0 °F 21.2 °F 17% 30.29 in 10.0 mi NNW 3.5 mph - N/A   Clear
1:55 PM 68.0 °F 30.2 °F 24% 30.27 in 10.0 mi West 8.1 mph - N/A   Clear
2:15 PM 68.0 °F 30.2 °F 24% 30.27 in 10.0 mi West 8.1 mph - N/A   Clear
2:35 PM 68.0 °F 30.2 °F 24% 30.26 in 10.0 mi West 9.2 mph - N/A   Clear
2:55 PM 68.0 °F 30.2 °F 24% 30.25 in 10.0 mi West 9.2 mph - N/A   Clear
3:15 PM 68.0 °F 28.4 °F 23% 30.24 in 10.0 mi West 9.2 mph - N/A   Clear
3:35 PM 68.0 °F 30.2 °F 24% 30.24 in 10.0 mi WNW 8.1 mph - N/A   Clear
3:55 PM 68.0 °F 32.0 °F 26% 30.23 in 10.0 mi West 10.4 mph - N/A   Clear
4:15 PM 64.4 °F 33.8 °F 32% 30.22 in 10.0 mi West 12.7 mph 17.3 mph N/A   Clear
4:35 PM 64.4 °F 35.6 °F 34% 30.22 in 10.0 mi West 13.8 mph 18.4 mph N/A   Clear
4:55 PM 62.6 °F 37.4 °F 39% 30.22 in 10.0 mi West 13.8 mph 19.6 mph N/A   Clear
5:15 PM 62.6 °F 35.6 °F 37% 30.22 in 10.0 mi West 15.0 mph 19.6 mph N/A   Clear
5:35 PM 62.6 °F 37.4 °F 39% 30.23 in 10.0 mi West 11.5 mph 16.1 mph N/A   Clear
5:55 PM 62.6 °F 37.4 °F 39% 30.23 in 10.0 mi West 10.4 mph 17.3 mph N/A   Clear
6:15 PM 62.6 °F 39.2 °F 42% 30.24 in 10.0 mi WNW 8.1 mph 16.1 mph N/A   Clear
6:35 PM 60.8 °F 41.0 °F 48% 30.24 in 10.0 mi WNW 6.9 mph - N/A   Clear
6:55 PM 60.8 °F 41.0 °F 48% 30.24 in 10.0 mi WNW 4.6 mph - N/A   Clear
7:15 PM 59.0 °F 41.0 °F 51% 30.25 in 10.0 mi West 6.9 mph - N/A   Clear
7:35 PM 59.0 °F 41.0 °F 51% 30.25 in 10.0 mi West 5.8 mph - N/A   Clear
7:55 PM 57.2 °F 42.8 °F 59% 30.26 in 10.0 mi West 4.6 mph - N/A   Clear
8:15 PM 55.4 °F 42.8 °F 63% 30.26 in 10.0 mi West 3.5 mph - N/A   Clear
8:35 PM 53.6 °F 42.8 °F 67% 30.26 in 10.0 mi Calm Calm - N/A   Clear
8:55 PM 53.6 °F 44.6 °F 72% 30.27 in 10.0 mi Calm Calm - N/A   Clear
9:15 PM 50.0 °F 41.0 °F 71% 30.27 in 10.0 mi Calm Calm - N/A   Clear
9:35 PM 50.0 °F 41.0 °F 71% 30.27 in 10.0 mi Calm Calm - N/A   Clear
9:55 PM 46.4 °F 41.0 °F 81% 30.28 in 10.0 mi Calm Calm - N/A   Clear
10:15 PM 46.4 °F 41.0 °F 81% 30.29 in 10.0 mi Calm Calm - N/A   Clear
10:35 PM 46.4 °F 41.0 °F 81% 30.30 in 10.0 mi Calm Calm - N/A   Clear
10:55 PM 44.6 °F 41.0 °F 87% 30.30 in 10.0 mi Calm Calm - N/A   Clear
11:15 PM 42.8 °F 37.4 °F 81% 30.30 in 10.0 mi Calm Calm - N/A   Clear
11:35 PM 42.8 °F 39.2 °F 87% 30.30 in 10.0 mi Calm Calm - N/A   Clear
11:55 PM 42.8 °F 39.2 °F 87% 30.30 in 10.0 mi Calm Calm - N/A   Clear